ASTRA 5B

Last updated on Sun Apr 12 2026 00:02:53 GMT+0000 (Coordinated Universal Time)

1 39617U 14011B 26101.52537074 .00000138 00000+0 00000+0 0 9996 2 39617 0.0794 301.5010 0003125 59.1187 51.7716 1.00269746 43997
UTC large
Height (km)
Speed (km/s)
/
Latitude / Longitude
Inclination (degrees)
Orbital Period (minutes)
Azimuth
Elevation
Range (km)
Doppler Factor

Next 0 passes for location: London (51.5072 / 0.1276)

Sorry there are no passes over London.
ASTRA 5B